EHI
0 0 0 0 0 0 0 0 0 0 0 0 0 0 0 0 0 0 0 0 0 0 0 0 0 0 0 0 0 0 0 0 0 0 0 0 0 0 0 0 0 0 0 0 0 0 0 0 0
0 0 0 0 0 0 0 0 0 0 0 0 0 0 0 0 0 0 0 0 0 0 0 0 0 0 0 0 0 0 0 0 0 0 0 0 0 0 0 0 0 0 0 0 0 0 0 0 0
0 0 0 0 0 0 0 0 0 0 0 0 0 0 0 0 0 0 0 0 0 0 0 0 0 0 0 0 0 0 0 0 0 0 0 0 0 0 0 0 0 0 0 0 0 0 0 0 0
0 0 0 0 0 0 0 0 0 0 0 0 0 0 0 0 0 0 0 0 0 0 0 0 0 0 0 0 0 0 0 0 0 0 0 0 0 0 0 0 0 0 0 0 0 0 0 0 0
0 0 0 0 0 0 0 0 0 0 0 0 0 0 0 0 0 0 0 0 0 0 0 0 0 0 0 0 0 0 0 0 0 0 0 0 0 0 0 0 0 0 0 0 0 0 0 0 0
0 0 0 0 0 0 0 0 0 0 0 0 0 0 0 0 0 0 0 0 0 0 0 0 0 0 0 0 0 0 0 0 0 0 0 0 0 0 0 0 0 0 0 0 0 0 0 0 0
0 0 0 0 0 0 0 0 0 0 0 0 0 0 0 0 0 0 0 0 0 0 0 0 0 0 0 0 0 0 0 0 0 0 0 0 0 0 0 0 0 0 0 0 0 0 0 0 0
0 0 0 0 0 0 0 0 0 0 0 0 0 0 0 0 0 0 0 0 0 0 0 0 0 0 0 0 0 0 0 0 0 0 0 0 0 0 0 0 0 0 0 0 0 0 0 0 0
0 0 0 0 0 0 0 0 0 0 0 0 0 0 0 0 0 0 0 0 0 0 0 0 0 0 0 0 0 0 0 0 0 0 0 0 0 0 0 0 0 0 0 0 0 0 0 0 0
0 0 0 0 0 0 0 0 0 0 0 0 0 0 0 0 0 0 0 0 0 0 0 0 0 0 0 0 0 0 0 0 0 0 0 0 0 0 0 0 0 0 0 0 0 0 0 0 0
0 0 0 0 0 0 0 0 0 0 0 0 0 0 0 0 0 0 0 0 0 0 0 0 0 0 0 0 0 0 0 0 0 0 0 0 0 0 0 0 0 0 0 0 0 0 0 0 0
0 0 0 0 0 0 0 0 0 0 0 0 0 0 0 0 0 0 0 0 0 0 0 0 0 0 0 0 0 0 0 0 0 0 0 0 0 0 0 0 0 0 0 0 0 0 0 0 0
0 0 0 0 0 0 0 0 0 0 0 0 0 0 0 0 0 0 0 0 0 0 0 0 0 0 0 0 0 0 0 0 0 0 0 0 0 0 0 0 0 0 0 0 0 0 0 0 0
0 0 0 0 0 0 0 0 0 0 0 0 0 0 0 0 0 0 0 0 0 0 0 0 0 0 0 0 0 0 0 0 0 0 0 0 0 0 0 0 0 0 0 0 0 0 0 0 0
0 0 0 0 0 0 0 0 0 0 0 0 0 0 0 0 0 0 0 0 0 0 0 0 0 0 0 0 0 0 0 0 0 0 0 0 0 0 0 0 0 0 0 0 0 0 0 0 0
0 0 0 0 0 0 0 0 0 0 0 0 0 0 0 0 0 0 0 0 0 0 0 0 0 0 0 0 0 0 0 0 0 0 0 0 0 0 0 0 0 0 0 0 0 0 0 0 0
0 0 0 0 0 0 0 0 0 0 0 0 0 0 0 0 0 0 0 0 0 0 0 0 0 0 0 0 0 0 0 0 0 0 0 0 0 0 0 0 0 0 0 0 0 0 0 0 0
0 0 0 0 0 0 0 0 0 0 0 0 0 0 0 0 0 0 0 0 0 0 0 0 0 0 0 0 0 0 0 0 0 0 0 0 0 0 0 0 0 0 0 0 0 0 0 0 0
0 0 0 0 0 0 0 0 0 0 0 0 0 0 0 0 0 0 0 0 0 0 0 0 0 0 0 0 0 0 0 0 0 0 0 0 0 0 0 0 0 0 0 0 0 0 0 0 0
0 0 0 0 0 0 0 0 0 0 0 0 0 0 0 0 0 0 0 0 0 0 0 0 0 0 0 0 0 0 0 0 0 0 0 0 0 0 0 0 0 0 0 0 0 0 0 0 0
0 0 0 0 0 0 0 0 0 0 0 0 0 0 0 0 0 0 0 0 0 0 0 0 0 0 0 0 0 0 0 0 0 0 0 0 0 0 0 0 0 0 0 0 0 0 0 0 0
0 0 0 0 0 0 0 0 0 0 0 0 0 0 0 0 0 0 0 0 0 0 0 0 0 0 0 0 0 0 0 0 0 0 0 0 0 0 0 0 0 0 0 0 0 0 0 0 0
0 0 0 0 0 0 0 0 0 0 0 0 0 0 0 0 0 0 0 0 0 0 0 0 0 0 0 0 0 0 0 0 0 0 0 0 0 0 0 0 0 0 0 0 0 0 0 0 0
0 0 0 0 0 0 0 0 0 0 0 0 0 0 0 0 0 0 0 0 0 0 0 0 0 0 0 0 0 0 0 0 0 0 0 0 0 0 0 0 0 0 0 0 0 0 0 0 0
0 0 0 0 0 0 0 0 0 0 0 0 0 0 0 0 0 0 0 0 0 0 0 0 0 0 0 0 0 0 0 0 0 0 0 0 0 0 0 0 0 0 0 0 0 0 0 0 0
0 0 0 0 0 0 0 0 0 0 0 0 0 0 0 0 0 0 0 0 0 0 0 0 0 0 0 0 0 0 0 0 0 0 0 0 0 0 0 0 0 0 0 0 0 0 0 0 0
0 0 0 0 0 0 0 0 0 0 0 0 0 0 0 0 0 0 0 0 0 0 0 0 0 0 0 0 0 0 0 0 0 0 0 0 0 0 0 0 0 0 0 0 0 0 0 0 0
0 0 0 0 0 0 0 0 0 0 0 0 0 0 0 0 0 0 0 0 0 0 0 0 0 0 0 0 0 0 0 0 0 0 0 0 0 0 0 0 0 0 0 0 0 0 0 0 0
0 0 0 0 0 0 0 0 0 0 0 0 0 0 0 0 0 0 0 0 0 0 0 0 0 0 0 0 0 0 0 0 0 0 0 0 0 0 0 0 0 0 0 0 0 0 0 0 0
0 0 0 0 0 0 0 0 0 0 0 0 0 0 0 0 0 0 0 0 0 0 0 0 0 0 0 0 0 0 0 0 0 0 0 0 0 0 0 0 0 0 0 0 0 0 0 0 0
Wind_Speed
3 4 3 4 7 7 3 2 4 4 2 2 4 8 7 5 4 5 4 6 8 6 3 2 7 7 8 9 10 11 12 13 14 14 15 15 16 16 17 18 19 19 20 21 21 22 23 23 24
2 3 5 5 6 3 3 3 5 3 6 6 5 6 5 2 2 7 5 7 8 7 3 1 7 8 8 9 10 11 11 12 13 14 15 15 16 16 17 18 18 19 19 20 21 21 22 23 23
1 3 5 6 4 5 6 4 5 3 4 4 4 4 4 6 6 7 6 9 8 6 3 1 8 8 8 8 9 10 11 11 12 13 14 15 16 16 17 18 18 19 19 20 20 21 22 22 23
4 5 6 6 3 1 4 5 6 7 3 4 5 4 2 2 7 7 8 9 9 6 3 2 8 7 7 8 8 9 9 10 11 13 14 15 15 16 16 17 18 18 19 20 20 21 22 22 23
4 5 7 5 1 2 1 6 7 5 5 3 5 5 2 1 4 9 10 10 9 6 4 2 7 6 6 6 7 7 8 9 11 12 13 15 15 16 16 17 17 18 19 20 20 21 22 22 23
5 5 6 3 2 1 2 4 5 4 5 5 7 6 4 2 7 9 9 9 9 7 4 1 5 5 5 5 5 5 7 9 10 12 13 14 15 16 16 17 18 19 19 20 21 22 22 22 23
5 5 5 6 5 4 5 5 7 6 5 8 10 8 3 5 7 8 9 8 7 7 6 3 4 4 4 3 3 5 6 8 9 11 12 14 15 16 16 17 18 19 20 20 21 21 22 22 23
5 7 5 5 6 6 6 5 4 7 5 6 9 9 8 10 9 8 7 7 7 6 6 5 4 3 2 2 3 4 5 7 8 9 11 12 14 14 16 16 18 20 20 20 20 21 22 22 22
4 6 4 8 8 6 7 5 2 2 5 4 3 6 7 14 12 9 6 5 6 7 5 6 5 3 2 0 2 3 4 5 6 6 9 8 4 4 8 14 18 19 19 19 20 21 21 21 19
5 5 6 4 5 8 8 6 8 4 3 3 0 1 7 16 15 14 10 10 9 8 6 5 6 5 3 1 2 1 1 2 2 1 2 2 2 4 8 14 17 18 18 18 19 20 18 15 7
5 5 3 1 2 7 8 6 7 9 8 10 9 8 13 14 15 15 13 11 10 9 8 7 6 6 4 2 2 1 0 0 1 1 2 2 2 3 4 3 6 8 11 7 10 10 7 6 7
5 2 2 1 2 6 8 8 5 9 10 8 11 16 17 17 18 17 15 11 9 9 9 8 7 6 5 4 2 2 2 1 1 1 1 2 1 2 2 2 3 3 3 4 4 4 6 6 7
3 2 1 2 4 5 6 6 5 8 7 3 10 15 18 19 16 13 11 10 10 11 11 9 8 7 6 4 3 3 2 2 2 2 1 2 1 1 1 2 2 3 3 3 4 4 5 6 6
3 3 2 2 3 2 3 3 4 10 6 8 13 16 17 18 17 13 11 12 14 13 12 10 9 8 7 5 4 3 3 3 2 2 3 3 2 2 1 2 2 3 3 3 4 5 5 5 5
4 4 2 1 0 0 1 6 10 7 8 9 12 14 15 15 15 16 13 13 14 14 12 11 10 8 8 6 5 3 3 3 3 3 3 4 4 3 3 2 3 3 3 4 4 5 4 5 6
3 2 2 4 4 2 4 10 9 7 10 11 11 11 13 15 15 14 12 11 13 13 13 12 11 9 8 6 5 3 3 3 3 3 3 5 5 4 3 3 4 4 3 3 4 3 3 5 5
1 1 4 3 6 5 6 12 7 5 10 12 11 12 13 13 15 14 13 13 15 15 15 13 10 11 9 7 5 4 3 3 3 3 3 4 5 5 4 3 4 4 3 3 5 4 4 5 6
3 4 5 6 5 6 7 14 11 6 11 12 11 11 13 16 19 14 14 14 15 15 14 14 11 10 8 5 3 2 2 2 3 3 4 5 4 5 4 4 5 4 3 3 4 5 4 5 6
3 3 5 5 4 7 10 16 16 8 10 13 12 12 15 19 15 11 13 13 13 14 14 15 13 11 8 4 4 3 3 3 3 3 5 5 5 5 4 4 4 3 3 4 5 4 5 4 4
2 3 4 3 2 5 7 13 13 9 11 13 15 16 17 15 11 12 12 14 16 17 17 16 15 13 11 6 5 4 3 3 3 3 3 5 5 5 4 4 4 4 3 5 5 4 3 4 4
2 3 3 3 2 3 5 12 9 5 5 7 10 11 12 17 16 14 15 17 17 18 19 17 16 14 12 8 4 3 2 1 2 3 3 4 5 5 5 5 4 4 4 4 5 5 5 5 4
4 1 1 1 2 5 2 7 11 5 6 8 12 12 15 15 14 13 15 16 19 20 16 15 15 13 12 10 8 7 6 5 5 4 3 4 5 5 5 5 5 5 4 5 6 6 4 5 6
4 2 1 0 1 4 3 4 13 3 7 12 13 14 17 16 14 14 17 19 18 16 15 14 14 14 12 11 11 8 6 5 3 3 4 4 4 5 5 5 5 5 5 6 6 6 6 5 6
3 3 3 4 3 5 7 7 12 7 11 10 10 12 14 14 13 13 12 11 11 12 13 13 15 14 13 12 11 10 9 8 6 6 5 4 3 4 5 5 5 5 5 6 7 7 7 7 7
3 4 3 4 2 8 4 6 15 11 10 11 11 12 13 11 11 11 11 12 13 15 16 15 16 15 14 13 12 11 10 9 9 8 6 5 4 4 6 6 5 5 6 7 7 7 7 7 7
5 6 6 4 5 7 5 9 14 10 9 9 10 9 8 9 9 11 13 14 14 16 17 17 18 15 15 14 12 10 10 7 6 8 6 6 5 5 6 6 6 7 7 8 6 6 8 7 8
4 5 6 5 3 5 9 10 14 6 6 6 8 7 10 10 10 11 10 11 13 16 18 19 18 15 15 14 12 10 9 9 8 7 7 5 5 5 7 7 7 7 7 7 7 7 8 8 9
3 4 5 4 4 7 9 8 9 8 9 9 9 11 12 10 9 10 10 12 13 14 14 14 16 16 13 13 12 10 9 9 8 7 7 7 7 7 6 7 7 7 7 8 7 8 9 9 10
5 4 5 4 4 5 7 12 9 9 9 11 14 13 13 12 12 12 12 11 10 10 12 14 14 13 12 13 11 10 9 9 8 7 8 7 7 7 7 7 7 7 8 8 8 10 10 11 12
7 8 8 6 7 6 5 14 9 9 10 10 12 11 10 10 10 9 9 8 10 12 13 15 15 14 14 13 11 11 9 8 8 8 8 7 7 7 7 7 7 8 8 8 9 11 12 11 13
Wind_Direction
69 92 74 59 57 55 101 154 148 122 99 68 82 98 105 112 150 162 158 141 130 113 79 38 94 82 72 63 55 48 43 38 34 30 27 25 24 23 22 20 18 15 13 12 10 8 7 6 4
93 109 59 62 83 102 212 166 145 157 150 136 97 91 90 91 100 123 156 146 127 119 104 144 104 90 77 66 58 49 43 39 34 29 26 24 23 22 21 19 17 14 13 12 10 8 6 5 3
60 93 82 74 94 172 197 176 159 137 140 123 84 67 113 150 149 165 166 142 122 119 114 167 110 96 81 68 59 50 42 38 34 29 25 23 22 20 20 17 15 13 12 11 9 8 7 5 3
67 54 54 69 88 318 187 175 157 131 111 85 106 95 86 144 171 169 147 134 125 133 139 162 117 103 86 71 60 51 42 36 33 29 26 24 21 19 20 16 13 12 11 10 9 8 7 5 4
65 79 66 62 33 356 119 153 146 136 148 117 119 132 148 335 141 135 140 139 139 154 168 174 125 114 100 79 61 52 42 36 33 30 28 25 20 17 20 14 12 12 11 10 9 8 8 7 5
63 71 89 153 158 106 170 177 150 131 146 132 130 146 198 178 142 147 147 149 151 156 159 107 118 111 102 90 66 51 45 36 34 30 29 27 20 15 19 12 11 12 10 10 8 8 7 6 4
97 91 128 161 163 187 202 176 160 154 167 177 152 143 199 212 188 156 148 148 149 147 137 109 77 66 64 55 62 52 48 38 35 30 29 28 20 15 17 11 9 11 9 9 7 7 7 6 3
114 101 109 163 175 211 187 159 166 161 180 152 142 154 202 201 186 150 144 146 144 141 138 135 122 104 69 5 16 49 47 37 35 26 27 30 22 16 16 8 9 9 8 6 4 4 5 5 0
86 84 164 195 186 199 180 148 116 127 136 131 168 194 200 157 157 146 150 157 159 153 152 151 143 131 111 218 54 41 37 32 41 25 25 37 20 355 16 3 9 7 5 4 1 0 2 1 355
68 134 192 199 200 177 177 159 156 138 162 183 168 12 132 149 164 170 177 179 177 173 175 169 158 152 143 128 87 50 57 56 72 85 62 62 31 6 25 8 7 4 2 0 356 356 357 354 342
74 147 165 338 178 151 151 158 162 151 207 212 197 177 156 165 177 185 188 184 182 178 178 176 169 162 158 162 173 172 167 163 78 83 100 78 52 25 21 12 2 356 356 353 349 347 340 333 332
84 61 120 18 126 142 157 162 190 198 218 214 186 165 167 178 188 193 194 189 177 176 183 181 173 167 171 174 186 191 190 193 197 195 136 101 62 30 11 2 343 341 333 325 322 315 314 313 312
100 131 47 46 94 134 144 176 215 235 231 178 149 163 180 189 196 200 197 186 177 182 183 183 176 173 173 176 199 184 198 202 202 194 171 140 120 55 355 322 313 305 298 296 297 298 299 303 304
116 95 70 40 52 83 152 222 253 249 176 151 163 182 192 196 198 198 196 189 185 184 183 180 179 177 170 173 188 202 208 209 200 198 192 168 163 182 229 273 283 282 278 277 281 288 293 293 291
94 82 13 292 234 286 80 272 239 237 156 174 189 196 201 207 204 205 200 190 187 185 181 179 180 175 171 178 193 196 207 207 206 205 196 188 186 197 210 237 261 268 273 283 286 290 292 302 308
98 73 287 240 193 163 156 260 257 189 171 196 205 206 210 215 213 211 203 190 186 182 181 183 180 173 176 179 188 196 204 205 210 206 202 204 205 205 208 229 252 263 272 279 287 283 298 300 300
26 277 267 257 192 170 196 250 271 177 189 208 212 213 216 220 222 217 205 194 187 185 183 184 177 173 177 180 181 187 193 203 208 206 210 216 217 216 213 231 249 262 269 276 297 314 295 299 303
232 227 253 250 210 178 224 257 267 208 210 221 220 219 222 224 224 214 206 196 189 186 184 183 177 176 172 167 163 173 193 209 212 216 223 223 222 225 223 237 251 260 269 277 280 288 288 284 293
222 233 260 257 195 189 237 262 270 227 217 233 230 225 227 232 228 213 204 193 186 185 185 184 181 179 168 159 166 180 206 214 231 233 228 222 222 229 231 251 260 261 261 269 280 284 291 287 288
239 272 272 281 198 211 271 275 269 227 211 221 224 226 229 235 229 215 202 194 192 191 190 188 187 182 180 176 167 170 171 195 215 230 227 221 224 234 243 241 250 258 264 276 283 284 281 285 306
266 240 251 274 338 269 307 300 282 254 222 234 230 228 229 229 228 216 205 201 197 197 194 191 189 185 183 172 151 145 138 197 229 224 225 231 234 242 246 250 249 254 247 260 271 273 268 284 288
252 207 182 298 344 294 221 290 288 262 260 249 240 233 235 233 228 217 208 204 203 202 193 190 185 183 180 172 170 171 182 199 213 210 218 239 245 245 245 250 251 252 248 254 266 280 262 272 290
213 162 148 138 198 302 244 229 279 274 259 254 242 233 235 233 224 220 212 209 205 195 188 186 181 182 179 178 179 179 193 202 209 217 233 242 246 245 248 250 250 249 247 253 261 269 263 254 264
121 69 53 51 69 283 226 187 271 234 219 238 240 232 231 230 224 224 216 202 195 184 183 181 182 185 182 182 182 186 193 199 208 220 231 238 239 246 250 251 245 245 247 254 259 257 256 254 258
103 87 356 327 321 255 228 211 250 243 223 219 223 229 228 224 219 217 206 197 191 186 187 185 186 188 185 185 189 193 195 196 206 214 222 227 233 237 246 250 246 247 247 254 256 254 254 253 256
185 154 175 234 250 285 286 238 253 255 247 234 234 236 236 229 219 216 208 200 194 191 188 188 190 190 187 191 195 195 194 195 206 210 209 217 223 233 241 242 243 246 251 261 256 256 258 259 255
187 205 180 161 260 270 268 277 294 267 261 237 232 236 240 234 225 221 210 199 195 192 193 191 191 191 191 193 192 195 195 197 204 207 210 218 227 238 240 239 243 249 252 255 257 257 259 261 261
209 156 116 153 231 265 280 269 254 272 254 245 239 237 243 243 239 230 216 207 201 197 193 191 192 194 190 190 193 198 197 200 201 202 213 221 230 239 246 247 248 253 255 256 256 259 262 262 265
169 192 186 182 192 201 265 265 232 238 244 236 235 234 236 236 232 228 221 209 197 187 188 192 194 193 192 193 194 193 193 196 198 205 216 222 230 235 241 246 251 255 258 258 259 263 266 266 270
187 198 166 183 235 211 233 266 258 249 260 246 246 246 244 242 238 230 216 195 191 194 194 197 197 197 196 192 191 195 191 191 200 211 218 221 229 234 239 247 254 260 264 261 261 269 275 271 273